Location: Hains Lake
(37.8540°N, 99.8578°W)
Time: 04:32:27
(UTC+00:00)

Tiros 1 despin weight - Pass Details

Date: 22 April 2021
Orbit: 593 x 642 km, 48.2° (Epoch: 07 May)

Event Time Altitude Azimuth Distance (km) Brightness Sun altitude
Rises 12:23:29 0° 273° (W) 2,912 ? 4.8°
Reaches altitude 10° 12:26:06 10° 285° (WNW) 1,997 ? 5.3°
Maximum altitude 12:30:04 28° 344° (NNW) 1,171 ? 6.0°
Drops below altitude 10° 12:33:59 10° 44° (NE) 1,973 ? 6.8°
Sets 12:36:33 0° 56° (ENE) 2,869 ? 7.3°
